| time (UTC) | temp F | wind direction | speed knots | gust knots | rain 1hr in | rain 24hr in | rain mn in | humidity % | barometer mb |
| 20260506221537 | 47 | 290 | 1.7 | 7.0 | 0.01 | 0.51 | 0.49 | 98 | 1006.4 |
| 20260506220040 | 47 | 134 | 0.9 | 6.1 | 0.01 | 0.51 | 0.49 | 98 | 1006.2 |
| 20260506214537 | 48 | 0 | 0.9 | 6.1 | 0.01 | 0.52 | 0.48 | 98 | 1005.9 |
| 20260506213043 | 48 | 0 | 1.7 | 5.2 | 0.01 | 0.52 | 0.48 | 98 | 1005.8 |
| 20260506211542 | 48 | 268 | 1.7 | 7.8 | 0.01 | 0.52 | 0.48 | 98 | 1005.6 |
| 20260506210048 | 49 | 0 | 1.7 | 10.4 | 0.01 | 0.52 | 0.48 | 97 | 1005.5 |
| 20260506204542 | 50 | 125 | 1.7 | 7.8 | 0.00 | 0.52 | 0.47 | 98 | 1005.2 |
| 20260506203040 | 51 | 0 | 0.9 | 4.3 | 0.00 | 0.52 | 0.47 | 98 | 1005.0 |
| 20260506201546 | 51 | 304 | 0.9 | 6.1 | 0.00 | 0.52 | 0.47 | 98 | 1004.8 |
| 20260506200043 | 52 | 0 | 0.9 | 5.2 | 0.00 | 0.52 | 0.47 | 98 | 1004.7 |
| 20260506194541 | 52 | 268 | 2.6 | 8.7 | 0.00 | 0.52 | 0.47 | 98 | 1004.7 |
| 20260506193043 | 52 | 292 | 2.6 | 7.8 | 0.00 | 0.52 | 0.47 | 97 | 1004.7 |
| 20260506191548 | 54 | 0 | 0.9 | 5.2 | 0.00 | 0.52 | 0.47 | 97 | 1004.5 |
| 20260506190040 | 56 | 291 | 0.9 | 3.5 | 0.01 | 0.52 | 0.47 | 98 | 1004.4 |
| 20260506184545 | 57 | 277 | 0.9 | 3.5 | 0.01 | 0.52 | 0.47 | 98 | 1004.4 |
| 20260506183041 | 57 | 0 | 0.0 | 0.0 | 0.02 | 0.52 | 0.47 | 98 | 1004.3 |
| 20260506181540 | 57 | 0 | 0.0 | 2.6 | 0.03 | 0.52 | 0.47 | 98 | 1004.3 |
| 20260506180045 | 57 | 0 | 0.0 | 0.0 | 0.04 | 0.51 | 0.46 | 99 | 1004.6 |
| 20260506174537 | 56 | 153 | 0.0 | 1.7 | 0.06 | 0.51 | 0.46 | 98 | 1004.7 |
| 20260506173109 | 56 | 144 | 0.9 | 2.6 | 0.07 | 0.50 | 0.45 | 98 | 1004.6 |
| 20260506171536 | 56 | 0 | 0.9 | 2.6 | 0.08 | 0.49 | 0.44 | 98 | 1004.7 |
| 20260506170046 | 56 | 118 | 0.9 | 5.2 | 0.08 | 0.47 | 0.42 | 98 | 1004.9 |
| 20260506164542 | 55 | 122 | 0.0 | 2.6 | 0.08 | 0.45 | 0.40 | 98 | 1005.1 |
| 20260506163041 | 55 | 86 | 0.0 | 6.1 | 0.08 | 0.43 | 0.38 | 98 | 1005.3 |
| 20260506161537 | 55 | 125 | 0.0 | 2.6 | 0.08 | 0.41 | 0.36 | 98 | 1005.2 |
| 20260506160036 | 55 | 0 | 0.0 | 1.7 | 0.08 | 0.39 | 0.34 | 98 | 1005.2 |
| 20260506154540 | 55 | 66 | 0.9 | 3.5 | 0.09 | 0.37 | 0.32 | 98 | 1005.3 |
| 20260506153046 | 55 | 113 | 0.0 | 1.7 | 0.09 | 0.35 | 0.30 | 98 | 1005.4 |
| 20260506151541 | 54 | 0 | 0.0 | 2.6 | 0.11 | 0.33 | 0.28 | 98 | 1005.6 |
| 20260506150043 | 54 | 0 | 0.0 | 2.6 | 0.12 | 0.31 | 0.26 | 98 | 1005.8 |
| 20260506144542 | 54 | 0 | 0.0 | 3.5 | 0.11 | 0.28 | 0.23 | 98 | 1006.2 |
| 20260506143037 | 54 | 126 | 0.0 | 2.6 | 0.10 | 0.25 | 0.20 | 98 | 1006.5 |
| 20260506141544 | 54 | 0 | 0.0 | 0.9 | 0.07 | 0.22 | 0.17 | 98 | 1006.5 |
| 20260506140043 | 54 | 0 | 0.0 | 0.0 | 0.05 | 0.19 | 0.14 | 98 | 1006.6 |
| 20260506134541 | 53 | 0 | 0.0 | 0.9 | 0.04 | 0.17 | 0.12 | 98 | 1006.8 |
| 20260506133041 | 53 | 0 | 0.0 | 1.7 | 0.03 | 0.15 | 0.10 | 98 | 1006.5 |
| 20260506131549 | 53 | 0 | 0.0 | 0.0 | 0.04 | 0.15 | 0.10 | 98 | 1006.2 |
| 20260506130053 | 52 | 0 | 0.0 | 0.0 | 0.05 | 0.14 | 0.09 | 97 | 1006.6 |
| 20260506124554 | 52 | 0 | 0.0 | 1.7 | 0.05 | 0.13 | 0.08 | 97 | 1006.4 |
| 20260506123043 | 51 | 0 | 0.0 | 2.6 | 0.05 | 0.12 | 0.07 | 97 | 1006.8 |
| 20260506121541 | 51 | 0 | 0.0 | 0.9 | 0.05 | 0.11 | 0.06 | 97 | 1006.8 |
| 20260506120041 | 51 | 0 | 0.0 | 7.0 | 0.04 | 0.09 | 0.04 | 97 | 1007.0 |
| 20260506114541 | 51 | 263 | 0.9 | 3.5 | 0.03 | 0.09 | 0.03 | 96 | 1007.3 |
| 20260506113046 | 51 | 263 | 0.0 | 1.7 | 0.02 | 0.08 | 0.02 | 96 | 1007.2 |
| 20260506111535 | 51 | 0 | 0.0 | 0.0 | 0.01 | 0.07 | 0.01 | 96 | 1006.9 |
| 20260506110051 | 51 | 0 | 0.0 | 0.0 | 0.00 | 0.06 | 0.00 | 96 | 1006.8 |
| 20260506104548 | 51 | 0 | 0.0 | 0.0 | 0.00 | 0.06 | 0.00 | 96 | 1006.8 |
| 20260506103048 | 51 | 291 | 0.0 | 8.7 | 0.00 | 0.06 | 0.00 | 96 | 1006.7 |
| 20260506101550 | 51 | 265 | 0.9 | 7.0 | 0.00 | 0.06 | 0.00 | 95 | 1006.5 |
| 20260506100057 | 51 | 284 | 1.7 | 6.1 | 0.00 | 0.06 | 0.00 | 95 | 1007.4 |
| 20260506094536 | 51 | 0 | 0.0 | 0.0 | 0.00 | 0.06 | 0.00 | 95 | 1006.8 |
| 20260506093046 | 51 | 0 | 0.0 | 0.0 | 0.00 | 0.06 | 0.00 | 94 | 1006.5 |
| 20260506091541 | 51 | 0 | 0.0 | 1.7 | 0.00 | 0.06 | 0.00 | 94 | 1006.4 |
| 20260506090039 | 51 | 0 | 0.0 | 2.6 | 0.00 | 0.06 | 0.00 | 94 | 1006.6 |
| 20260506084600 | 51 | 0 | 0.0 | 0.0 | 0.00 | 0.06 | 0.00 | 94 | 1007.1 |
| 20260506083038 | 51 | 0 | 0.0 | 0.0 | 0.00 | 0.06 | 0.00 | 94 | 1007.1 |
| 20260506081551 | 51 | 0 | 0.0 | 0.0 | 0.00 | 0.06 | 0.00 | 94 | 1007.1 |
| 20260506073044 | 52 | 290 | 0.0 | 0.9 | 0.00 | 0.06 | 0.00 | 93 | 1007.8 |
| 20260506071541 | 52 | 290 | 0.0 | 1.7 | 0.00 | 0.06 | 0.00 | 93 | 1007.9 |
| 20260506061541 | 52 | 0 | 0.0 | 0.9 | 0.00 | 0.06 | 0.00 | 92 | 1008.0 |
| 20260506044636 | 53 | 277 | 0.9 | 3.5 | 0.00 | 0.06 | 0.00 | 91 | 1008.4 |
| 20260506043040 | 54 | 277 | 1.7 | 5.2 | 0.00 | 0.06 | 0.00 | 91 | 1008.3 |
| 20260506041536 | 55 | 263 | 1.7 | 7.0 | 0.00 | 0.06 | 0.00 | 90 | 1008.4 |
| 20260506040046 | 55 | 281 | 2.6 | 6.1 | 0.00 | 0.06 | 0.00 | 90 | 1008.8 |
| 20260506034619 | 55 | 0 | 0.9 | 6.1 | 0.00 | 0.06 | 0.06 | 91 | 1008.7 |
| 20260506033042 | 55 | 255 | 0.9 | 6.1 | 0.00 | 0.06 | 0.06 | 91 | 1008.5 |
| 20260506031543 | 56 | 0 | 0.9 | 7.0 | 0.01 | 0.06 | 0.06 | 91 | 1008.4 |
| 20260506030039 | 56 | 236 | 1.7 | 6.1 | 0.01 | 0.06 | 0.06 | 92 | 1008.2 |
| 20260506024537 | 57 | 293 | 2.6 | 6.1 | 0.01 | 0.06 | 0.06 | 93 | 1008.2 |
| 20260506023103 | 57 | 286 | 1.7 | 7.0 | 0.01 | 0.06 | 0.06 | 95 | 1008.3 |
| 20260506021542 | 58 | 0 | 0.9 | 3.5 | 0.00 | 0.05 | 0.05 | 96 | 1008.1 |
| 20260506020044 | 58 | 252 | 0.9 | 7.8 | 0.00 | 0.05 | 0.05 | 96 | 1007.9 |
| 20260506014538 | 58 | 0 | 0.0 | 0.0 | 0.00 | 0.05 | 0.05 | 96 | 1007.7 |
| 20260506013040 | 58 | 0 | 0.0 | 0.0 | 0.00 | 0.05 | 0.05 | 96 | 1007.2 |
| 20260506011537 | 58 | 0 | 0.0 | 0.0 | 0.00 | 0.05 | 0.05 | 96 | 1007.0 |
| 20260506010051 | 59 | 0 | 0.0 | 0.0 | 0.00 | 0.05 | 0.05 | 96 | 1006.6 |
| 20260506004600 | 59 | 0 | 0.0 | 0.0 | 0.00 | 0.05 | 0.05 | 96 | 1006.5 |
| 20260506003047 | 59 | 0 | 0.0 | 0.0 | 0.00 | 0.05 | 0.05 | 95 | 1006.8 |
| 20260506001540 | 59 | 0 | 0.0 | 0.0 | 0.00 | 0.05 | 0.05 | 95 | 1006.5 |
| 20260506000037 | 59 | 0 | 0.0 | 0.0 | 0.00 | 0.05 | 0.05 | 94 | 1006.2 |
| 20260505234606 | 60 | 0 | 0.0 | 0.0 | 0.00 | 0.05 | 0.05 | 94 | 1006.1 |
| 20260505233044 | 60 | 0 | 0.0 | 0.0 | 0.00 | 0.05 | 0.05 | 93 | 1005.8 |
| 20260505231543 | 60 | 0 | 0.0 | 0.0 | 0.00 | 0.05 | 0.05 | 94 | 1005.6 |
| 20260505230044 | 61 | 0 | 0.0 | 0.0 | 0.00 | 0.05 | 0.05 | 93 | 1005.5 |
| 20260505224546 | 60 | 0 | 0.0 | 0.0 | 0.03 | 0.05 | 0.05 | 93 | 1005.4 |
| 20260505223042 | 60 | 0 | 0.0 | 1.7 | 0.04 | 0.05 | 0.05 | 92 | 1005.4 |